Flag for Austria Weather past 2 weeks in Amstetten, Lower Austria, Austria

Now
60 °F

Overcast.


Feels Like: 60 °F
Forecast: 49 / 69 °F
Wind: N/A

Location: Linz / Hoersching-Flughafen

Current Time: Aug 20, 2014 at 5:33:35 PM

Latest Report: Aug 20, 2014 at 5:00 PM


Visibility: 28 mi

Pressure: 30.02 "Hg

Humidity: 73%

Dew point: 51 °F

Location of AmstettenLocation

Historic Weather in Amstetten — Graph

°F

Amstetten temperature yesterday

Maximum temperature yesterday: 70 °F (at 6:00 PM)
Minimum temperature yesterday: 57 °F (at 6:00 AM)
Average temperature yesterday: 62 °F

Past Weeks' High & Low Weather Summary

 TemperatureHumidityPressure
High83 °F (Aug 10, 5:00 PM)96% (Aug 7, 4:00 AM)30.15 "Hg (Aug 7, 4:00 AM)
Low51 °F (Aug 17, 4:00 AM)39% (Aug 8, 5:00 PM)29.68 "Hg (Aug 13, 7:00 PM)
Average64 °F77%29.96 "Hg
* Reported Aug 5 4:00 PM — Aug 20 4:00 PM, Amstetten, Weather by CustomWeather, © 2014

Note: Actual official high and low records may vary slightly from our data, if they occured in-between our weather recording intervals... More about our weather records

Advertising

Amstetten weather history for previous 24 hours

 ConditionsComfort  
Time TempWeatherWind HumidityBarometerVisibility
4:00 PM
Aug 20
61 °FOvercast.N/A72%30.04 "Hg25 mi
3:00 PM60 °FOvercast.N/A69%30.04 "Hg19 mi
2:00 PM59 °FOvercast.N/A79%30.06 "Hg22 mi
1:00 PM58 °FOvercast.N/A76%30.06 "Hg28 mi
12:00 PM57 °FOvercast.N/A78%30.07 "Hg28 mi
11:00 AM57 °FLight rain. Overcast.N/A80%30.07 "Hg7 mi
10:00 AM58 °FRain showers. Overcast.3 mph80%30.06 "Hg22 mi
9:00 AM58 °FLow clouds.5 mph85%30.04 "Hg17 mi
8:00 AM58 °FLight rain. Low clouds.N/A85%30.03 "Hg16 mi
7:00 AM58 °FRain showers. Overcast.3 mph84%30.02 "Hg16 mi
6:00 AM59 °FOvercast.N/A85%30.00 "Hg16 mi
5:00 AM60 °FOvercast.N/A90%29.98 "Hg6 mi
4:00 AM59 °FOvercast.N/A93%29.96 "Hg5 mi
3:00 AM59 °FOvercast.N/A91%29.95 "Hg8 mi
2:00 AM60 °FOvercast.N/A92%29.95 "Hg8 mi
1:00 AM60 °FPassing clouds.N/A91%29.96 "Hg12 mi
12:00 AM61 °FOvercast.N/A88%29.95 "Hg12 mi
11:00 PM
Aug 19
61 °FPassing clouds.N/A89%29.94 "Hg13 mi
10:00 PM62 °FOvercast.N/A83%29.93 "Hg17 mi
9:00 PM64 °FOvercast.N/A77%29.92 "Hg18 mi
8:00 PM65 °FOvercast.N/A74%29.90 "Hg22 mi
7:00 PM67 °FOvercast.N/A69%29.89 "Hg16 mi
6:00 PM70 °FScattered clouds.N/A57%29.88 "Hg22 mi
5:00 PM68 °FScattered clouds.N/A61%29.90 "Hg25 mi
Weather by CustomWeather, © 2014

See weather overviewHow to use our weather pages